User: anonymous   Login
Location: Oshawa
(43.9000°N, 78.8670°W)
Time: 19:14:14
(UTC-05:00)
Language:

Cosmos 1408 Rocket - Orbit

View from above orbital plane
View from above orbital plane
View from above satellite
View from above satellite

Ground track
Ground track

The orbit data is extracted from the following two-line orbital elements,

1 13553U 82092B   16345.29729899  .00000103  00000-0  94273-5 0  9996
2 13553  82.5700  50.0697 0020201 311.8197  90.8828 14.84096016849020
Epoch (UTC): 10 December 2016 07:08:06
Eccentricity: 0.0020201
inclination: 82.5700°
perigee height: 602 km
apogee height: 630 km
right ascension of ascending node: 50.0697°
argument of perigee: 311.8197°
revolutions per day: 14.84096016
mean anomaly at epoch: 90.8828°
orbit number at epoch: 84902

The dashed part of the orbit path shows where the satellite is in the earth's shadow,  

DLR